RH
8 8 16 18 30 32 31 21 13 20 25 23 23 26 52 53 60 76 69 58 53 51 62 56 50 49 49 49 49 50 49 51 48 57 60 62 63 66 67 69 72 72 76 79 82 85 78 70 66
9 11 17 21 31 39 29 17 14 22 20 19 24 25 29 68 56 63 72 67 52 52 65 60 59 56 55 54 52 52 53 56 54 55 62 64 65 71 76 82 85 88 83 86 89 90 74 69 66
12 14 20 25 32 31 32 15 12 15 15 18 26 26 43 61 55 58 66 68 57 58 60 58 64 64 60 59 57 58 60 61 60 62 65 68 70 71 75 77 77 81 86 90 90 82 74 72 70
17 19 18 19 21 16 17 13 10 10 10 16 16 53 51 49 54 58 68 70 62 69 62 64 68 68 66 64 64 66 70 74 73 77 78 85 85 81 77 76 77 81 82 84 88 88 80 75 74
19 21 21 20 19 14 10 8 8 9 8 8 16 46 62 61 60 59 66 69 72 76 75 67 70 72 72 71 71 76 80 80 79 79 78 84 89 87 82 79 79 79 81 82 83 84 80 78 77
26 22 25 25 18 12 9 9 9 9 8 8 8 48 72 64 66 67 76 79 78 77 76 68 75 79 79 77 79 81 83 86 88 86 85 98 94 90 86 84 84 85 85 85 83 80 79 78 76
26 28 28 23 17 14 10 9 11 9 9 16 18 54 75 74 75 77 91 90 89 85 82 83 83 89 84 88 87 87 90 92 92 90 90 90 91 87 82 78 74 71 68 69 71 72 71 73 74
23 26 28 23 20 17 10 9 8 9 9 14 15 55 85 80 82 80 92 93 90 90 88 90 89 87 88 91 92 92 91 84 87 91 90 84 80 75 71 68 64 60 56 53 51 54 58 56 47
20 29 30 24 20 15 13 11 8 7 9 9 19 58 68 80 83 88 97 100 100 97 93 89 89 89 94 97 96 93 86 82 83 81 77 77 73 66 59 57 54 49 42 37 34 31 28 28 34
21 30 27 18 16 15 15 15 14 10 10 11 56 75 75 80 88 96 98 99 100 100 98 89 86 90 99 95 89 83 83 80 78 76 73 66 60 61 56 54 34 32 26 23 23 26 37 42 42
21 25 21 18 16 18 15 15 14 14 13 11 50 82 81 82 83 91 94 96 97 95 93 92 90 90 93 90 85 83 80 78 76 71 59 67 69 69 49 34 24 25 38 38 39 42 45 43 44
24 19 17 17 16 16 16 15 16 16 16 14 55 69 75 82 81 77 91 91 94 93 89 99 93 91 90 86 83 79 78 75 70 64 48 68 61 64 53 45 43 39 44 38 42 39 36 36 39
25 22 18 17 16 16 15 16 17 16 16 14 14 61 69 74 77 76 77 83 86 90 83 97 92 88 85 83 79 77 73 66 58 53 46 64 57 52 48 51 38 43 37 36 36 34 38 35 40
20 19 21 20 20 20 19 19 16 16 14 13 14 16 55 66 70 75 77 81 86 85 86 91 86 85 80 79 73 72 61 54 57 55 54 59 48 47 46 44 37 34 34 35 34 32 38 40 45
20 24 25 23 22 22 19 23 21 16 14 15 14 13 14 28 60 70 73 76 79 81 84 82 85 84 76 75 65 63 50 51 52 55 56 52 57 48 42 38 34 32 32 34 34 37 37 44 50
26 25 32 22 22 20 21 26 18 16 16 16 15 13 15 15 14 44 66 65 74 78 83 80 81 80 75 69 58 53 46 48 52 55 54 55 53 48 43 37 34 32 32 33 36 37 38 42 48
31 38 32 26 19 21 21 22 18 15 15 16 15 15 16 16 16 13 42 60 65 72 78 79 76 77 74 68 50 46 46 51 54 56 56 56 50 46 40 36 35 34 39 40 39 40 36 42 48
36 34 27 27 21 17 19 22 20 16 17 18 17 17 18 18 17 13 11 19 56 64 70 77 74 77 72 67 52 47 46 53 54 55 56 56 51 44 40 37 36 39 40 39 37 39 38 40 46
27 26 27 23 19 21 24 24 20 16 18 18 20 20 19 18 16 14 12 11 22 57 72 74 72 79 72 66 55 50 55 52 56 55 55 54 51 44 45 40 39 42 40 41 44 38 38 42 47
26 28 28 23 20 21 24 22 21 19 18 18 18 20 21 19 18 18 18 17 16 40 72 71 70 78 70 67 58 57 52 53 54 55 56 55 51 47 46 42 42 46 46 46 48 43 40 42 46
24 27 29 28 23 21 24 23 20 17 17 15 15 14 15 17 22 30 31 32 29 58 69 70 69 75 69 65 61 56 52 55 57 56 58 55 52 49 48 44 49 50 48 49 49 46 41 42 48
27 22 23 24 29 38 21 36 24 20 19 17 16 17 24 36 36 38 40 41 36 61 69 68 69 72 68 64 60 57 56 59 67 67 61 57 54 51 50 49 52 50 52 53 54 51 47 43 46
23 23 22 23 29 32 27 36 26 20 22 18 16 15 41 46 44 42 42 40 53 63 68 67 69 70 68 64 61 57 57 56 63 64 61 58 56 55 52 52 55 58 59 56 54 51 47 46 43
19 23 26 25 29 42 24 35 25 20 22 26 31 37 42 45 43 42 43 50 79 78 73 72 72 72 70 67 61 57 56 61 69 67 63 62 58 60 61 60 60 60 57 55 54 52 47 48 47
24 31 54 49 51 43 22 32 24 30 34 33 39 42 43 47 48 52 56 57 69 83 85 77 72 72 72 68 66 63 54 58 67 69 68 62 62 65 69 68 69 68 65 62 58 53 52 48 47
38 37 63 69 63 63 38 49 29 55 57 59 47 46 44 46 52 57 58 58 51 71 80 82 83 82 79 75 69 57 52 59 69 69 68 67 65 70 76 72 69 67 65 64 63 61 59 53 53
46 59 39 54 60 76 52 38 26 52 65 63 68 71 73 75 54 53 55 53 65 84 83 78 78 78 75 73 71 69 62 64 70 72 70 70 70 77 80 74 69 66 67 67 64 65 63 59 58
35 30 65 70 91 73 44 36 36 85 80 73 76 80 79 77 72 71 59 57 75 80 86 83 85 92 90 81 77 78 77 71 71 71 72 75 80 78 80 76 69 65 63 64 63 71 73 71 72
43 57 65 76 91 95 78 62 62 88 83 85 79 72 81 83 78 82 82 66 73 76 85 90 89 90 92 92 95 91 89 80 80 78 81 81 81 82 85 82 76 79 86 87 84 82 80 74 61
30 34 36 76 62 85 81 69 37 61 76 73 69 61 78 76 75 82 84 64 70 75 83 92 93 94 98 97 97 96 94 91 87 88 89 88 88 91 80 80 92 95 90 81 76 73 65 60 62
Wind_Speed
12 9 8 2 3 2 8 10 16 7 1 1 4 8 11 4 4 5 10 21 31 36 32 29 27 26 24 22 21 19 18 16 15 13 12 11 11 11 10 10 9 8 7 7 6 5 5 4 4
9 7 5 3 2 3 9 14 14 5 4 3 7 6 7 4 5 9 10 23 31 34 32 29 26 25 23 22 21 19 18 16 15 13 11 10 10 10 9 10 9 8 6 6 6 4 3 3 3
11 5 2 4 4 10 6 1 3 7 8 7 4 6 5 6 8 6 26 27 26 30 28 29 26 24 23 22 20 19 17 16 14 12 11 9 8 7 7 7 7 7 7 6 4 2 3 2 2
3 5 4 0 12 18 17 15 7 6 7 6 5 7 5 9 8 14 29 30 25 27 25 26 25 24 23 21 20 18 16 14 13 11 8 8 8 8 7 6 7 6 5 6 6 3 1 0 1
3 2 2 4 13 17 20 5 3 5 3 3 3 6 5 10 22 25 22 24 29 27 23 25 23 22 21 21 19 18 16 15 13 12 12 10 9 8 7 7 6 6 5 5 4 3 2 1 1
2 3 2 7 17 17 15 10 7 5 4 5 2 8 4 22 24 19 22 24 29 31 27 26 23 21 20 20 19 18 18 18 16 15 14 11 10 9 8 7 6 6 5 4 4 3 2 1 0
6 2 7 9 15 16 13 2 5 6 2 4 2 5 4 10 25 19 22 24 23 25 27 27 26 24 22 23 23 22 21 21 19 18 16 12 11 10 9 8 7 6 5 4 3 3 3 3 3
3 4 8 9 10 15 9 6 3 2 1 4 3 6 6 10 25 21 17 19 20 20 24 26 26 25 24 24 23 24 23 19 18 18 15 14 13 11 10 9 8 6 5 5 4 3 3 4 5
5 4 7 8 12 12 7 7 6 2 4 3 3 6 15 30 29 24 19 17 20 21 24 25 26 25 24 25 24 23 21 19 19 18 16 15 14 14 12 8 8 8 6 4 3 3 3 3 5
1 5 9 11 16 10 8 7 7 6 3 4 13 16 23 23 22 19 16 16 18 22 24 25 24 25 23 25 25 24 24 23 21 20 18 16 14 13 11 11 8 8 7 7 8 9 7 5 3
6 6 8 11 15 8 5 8 5 7 8 7 12 17 16 20 17 15 16 18 20 21 21 24 25 25 23 24 26 25 25 24 22 20 20 20 16 17 11 12 11 11 11 11 9 9 8 6 11
11 18 16 15 13 7 4 5 5 4 8 7 15 23 19 17 16 17 21 22 22 26 27 27 28 27 25 22 27 27 26 25 23 23 23 18 20 21 14 13 14 12 10 8 8 7 7 8 8
9 9 11 12 9 7 7 5 7 8 11 8 7 18 19 18 18 26 29 28 30 29 31 31 33 31 29 26 27 27 28 27 25 23 24 19 21 20 17 15 13 14 11 11 12 10 9 9 13
7 15 15 12 12 9 9 8 4 9 10 12 13 12 17 20 21 24 26 29 33 31 31 33 37 36 33 30 30 28 28 26 27 26 24 23 22 21 18 21 17 18 15 14 12 12 12 11 15
10 12 11 11 8 11 8 13 18 12 13 15 16 16 13 17 24 24 36 35 38 40 41 40 40 41 39 33 31 30 30 32 30 29 29 23 21 24 21 21 19 19 18 15 15 15 13 13 12
9 6 6 7 10 18 7 21 17 12 12 15 16 20 10 10 10 28 34 37 39 36 41 43 43 46 42 35 33 31 33 32 30 31 30 27 25 25 21 21 20 19 16 17 16 15 14 15 15
5 7 10 12 14 14 9 19 17 11 10 9 6 6 6 7 8 15 28 33 36 40 41 41 40 47 46 40 32 32 31 31 31 29 29 28 23 24 23 22 21 19 19 17 16 14 15 15 18
7 9 9 9 11 6 9 8 7 10 10 10 10 9 9 9 11 20 27 25 41 42 41 47 43 46 47 42 33 32 30 29 29 30 30 30 25 25 22 23 22 20 19 18 16 15 14 13 20
15 17 16 12 11 7 9 8 7 7 7 9 7 9 10 11 13 24 34 38 29 42 42 43 40 41 43 43 41 37 34 30 29 29 28 29 26 27 22 26 23 20 20 20 17 16 15 14 15
15 15 13 13 9 12 14 24 10 10 10 8 8 9 11 9 10 11 9 15 24 36 44 45 44 45 44 39 37 36 40 33 32 29 27 27 27 22 23 24 24 21 25 23 21 19 17 11 12
16 11 8 11 7 8 9 26 11 10 9 14 14 14 13 13 8 5 6 10 5 26 45 47 45 47 43 36 33 31 33 27 31 32 32 30 29 24 20 22 20 21 23 24 21 20 20 14 10
16 4 8 10 8 5 3 17 15 14 16 12 9 8 8 9 9 7 8 8 10 17 34 40 36 38 36 35 32 33 32 24 18 27 30 28 28 27 23 24 22 21 22 22 19 18 20 20 20
3 8 4 3 4 8 7 4 24 1 11 13 14 13 8 8 8 8 8 13 18 16 30 32 33 34 34 37 34 32 24 22 26 27 25 22 20 18 23 25 22 24 24 21 19 16 16 21 20
3 4 8 5 2 6 20 7 23 13 7 12 12 7 7 8 7 8 13 21 21 13 28 33 36 36 36 31 30 32 31 29 29 31 31 27 22 19 18 21 23 24 23 20 18 16 17 19 18
4 1 3 3 4 10 3 6 15 6 4 11 3 7 6 7 8 9 10 9 16 17 12 25 29 29 35 33 32 33 33 36 35 35 33 31 27 22 19 19 19 19 19 18 17 17 17 17 17
4 2 4 5 2 7 14 6 4 17 18 21 22 18 12 8 8 9 9 10 14 10 13 13 18 23 31 33 32 34 38 35 33 36 35 31 31 27 24 23 20 18 16 17 18 19 19 19 18
3 3 1 4 5 4 4 7 14 14 16 17 15 19 19 20 14 9 9 15 18 20 10 9 14 17 21 24 24 22 31 34 35 32 32 33 35 31 28 25 22 20 20 21 22 20 18 17 17
5 5 4 2 4 6 7 11 10 12 13 13 15 12 13 18 20 19 8 12 15 17 19 15 11 13 12 15 21 22 25 33 36 38 37 38 36 33 28 24 20 20 22 18 19 21 17 15 14
6 3 4 1 3 3 6 5 5 4 4 4 5 8 8 7 14 16 21 8 9 11 12 10 9 11 14 13 17 22 27 31 32 36 37 38 37 33 31 26 24 22 20 17 16 19 18 16 17
9 11 8 3 10 6 4 13 10 3 5 5 5 4 4 3 3 4 17 7 8 6 8 8 7 10 12 15 18 23 28 31 35 35 35 36 34 30 31 27 22 19 19 20 20 22 24 22 21
Wind_Direction
304 297 306 297 45 104 256 256 236 343 60 48 70 79 114 65 42 140 118 139 148 155 159 159 157 155 153 151 148 147 145 144 142 140 138 134 129 126 122 116 107 105 106 102 90 94 84 70 56
312 306 232 290 139 303 276 244 259 129 141 128 82 53 77 103 67 116 102 138 150 155 159 158 159 158 157 156 154 153 151 151 148 148 148 145 140 136 135 134 134 127 118 107 120 125 78 65 48
294 273 93 167 211 236 250 333 234 150 117 67 61 51 61 104 133 127 144 146 148 156 160 159 161 161 161 162 159 158 156 154 151 150 147 142 143 147 152 149 145 140 142 144 140 140 102 66 38
329 351 327 204 263 260 241 278 198 54 47 96 105 90 71 67 120 147 147 144 144 156 162 160 161 163 164 163 162 159 156 150 146 138 139 158 159 161 167 170 168 173 159 155 157 171 153 113 351
223 304 253 275 267 270 280 254 63 90 103 78 119 148 74 62 119 139 131 153 147 156 159 161 161 163 163 161 159 155 154 147 149 161 164 178 174 171 174 180 179 181 186 188 189 203 215 241 326
272 121 319 281 277 284 290 237 115 75 25 333 51 109 46 123 126 133 121 138 152 155 155 160 158 158 160 156 157 162 164 163 163 168 175 170 176 183 184 185 190 196 200 207 203 204 193 195 115
192 166 251 266 283 297 299 147 105 118 73 40 26 59 115 84 126 132 116 131 140 148 152 157 159 162 167 169 167 169 174 176 178 187 191 184 182 183 180 179 182 186 182 177 171 158 143 123 99
190 138 265 264 280 283 314 11 89 98 346 100 89 132 169 146 133 142 131 136 144 156 161 162 164 172 175 175 176 179 188 189 184 190 186 180 177 175 174 177 177 173 166 163 157 145 129 120 100
262 271 259 254 269 279 333 26 344 342 65 21 116 141 143 143 145 142 141 146 155 164 169 173 172 180 181 183 186 189 189 181 179 179 176 177 175 175 177 171 175 176 176 180 179 168 144 143 120
165 242 244 243 263 274 323 22 334 27 330 297 74 79 125 133 140 142 156 160 164 169 175 178 183 189 190 186 184 183 181 181 180 178 172 172 174 180 179 172 162 171 157 141 128 127 121 115 135
262 235 259 258 267 278 297 328 317 334 319 281 143 143 149 152 162 164 167 174 175 183 184 187 188 193 190 189 183 182 185 181 181 181 171 174 186 187 170 169 156 155 147 134 132 139 133 130 118
255 268 269 269 269 289 301 286 309 316 243 292 157 162 160 168 174 179 172 178 178 189 191 191 191 191 191 197 189 188 188 186 184 184 178 179 180 183 185 165 154 154 154 151 170 152 146 140 135
280 264 277 281 286 291 301 283 235 242 281 300 290 168 172 179 184 188 179 183 188 188 197 193 188 192 194 197 195 195 194 190 187 186 183 187 197 199 190 185 163 163 168 162 148 143 127 120 120
282 296 295 298 302 295 294 288 252 247 236 258 266 273 183 189 188 187 181 186 188 192 195 192 194 193 195 196 197 195 194 194 189 188 188 194 198 188 182 170 165 164 167 167 161 146 146 126 133
283 283 296 285 293 278 260 271 262 258 241 231 231 237 246 189 196 185 191 191 189 194 190 192 192 192 195 194 197 196 193 191 193 194 193 194 196 196 193 188 176 169 175 178 173 149 149 147 131
302 293 283 278 254 264 204 260 257 246 240 241 239 229 197 207 207 190 195 195 192 188 190 191 188 193 195 192 194 196 195 194 197 195 192 191 191 198 196 183 183 180 175 157 154 153 161 156 140
251 258 253 281 251 243 226 249 243 234 252 247 207 207 212 232 231 238 195 198 194 194 190 192 189 189 192 192 193 195 192 191 193 191 193 193 186 190 187 184 175 170 163 166 169 163 163 153 146
233 230 255 249 274 305 292 278 282 220 221 222 222 219 221 222 226 232 241 218 196 198 192 191 187 186 188 187 189 188 194 193 195 194 196 196 190 184 187 188 182 176 168 163 172 161 156 159 154
253 265 272 288 298 317 290 288 291 269 277 281 250 237 226 223 228 228 229 230 204 195 183 186 183 182 178 179 179 183 186 188 192 193 196 193 189 184 193 190 182 177 182 168 157 160 148 124 146
269 279 288 296 303 311 315 298 291 283 281 280 252 237 228 240 244 240 234 229 219 193 180 182 184 179 180 181 182 180 185 183 186 190 190 193 187 186 186 188 178 184 173 171 160 161 155 147 152
265 269 263 271 296 307 318 289 283 277 252 260 271 268 261 244 222 105 53 11 355 186 180 181 180 178 178 178 174 177 179 177 173 181 182 187 187 183 185 186 180 174 177 171 170 165 168 153 142
268 333 21 10 7 281 237 291 276 273 279 293 297 305 350 33 56 32 22 21 1 195 185 179 173 172 172 173 170 168 173 171 173 169 174 178 181 179 177 180 175 177 182 175 172 166 169 170 151
250 23 358 332 329 324 259 261 279 208 291 269 261 283 66 57 51 32 16 354 6 158 167 166 163 166 169 173 174 169 170 177 169 164 163 170 177 182 175 173 166 168 171 171 173 164 165 172 168
317 355 306 276 140 253 266 192 272 306 337 336 334 47 75 61 39 29 24 19 22 120 156 160 162 167 172 173 176 172 174 164 157 164 164 167 171 171 168 171 168 164 162 167 165 152 140 138 135
158 120 309 307 191 231 46 260 239 69 21 337 89 106 83 56 27 24 23 10 19 47 121 156 163 165 172 179 184 187 175 170 166 165 164 162 160 160 159 162 154 154 158 155 156 150 140 136 132
349 150 166 261 255 311 326 248 225 53 22 16 20 18 17 34 34 35 28 12 6 31 79 110 150 163 177 184 190 189 184 172 166 166 166 161 160 159 159 156 154 148 147 142 140 135 130 127 126
33 15 17 323 270 247 242 291 315 32 27 16 13 15 9 9 354 36 24 10 18 22 27 90 127 143 171 182 182 185 174 161 162 162 159 157 163 156 155 155 156 152 142 142 140 131 127 133 125
62 336 15 356 288 260 272 297 286 22 7 6 1 15 24 1 357 350 11 27 27 37 51 56 80 101 120 144 162 157 153 157 158 162 160 159 159 156 156 156 156 151 148 154 145 130 132 137 128
357 6 21 75 154 262 291 269 107 88 50 357 328 348 360 33 347 333 321 63 59 40 47 68 82 104 119 142 151 152 152 158 159 156 156 159 159 162 159 159 161 163 162 166 160 143 137 148 155
292 283 269 167 275 232 244 260 317 299 163 214 259 261 191 204 256 230 305 236 117 60 47 60 84 99 122 141 150 143 152 154 154 153 156 161 160 163 161 158 167 167 165 158 154 150 163 157 152